Regional Weather Roundup
Issued by NWS Cleveland, OH

Home | Current Version | Previous Version | Graphics & Text | Print | Product List | Glossary On
Versions: 1 2 3 4 5 6 7 8 9 10 11 12 13 14 15 16 17 18 19 20 21 22 23 24 25 26 27 28 29 30 31 32 33 34 35 36 37 38 39 40 41 42 43 44 45 46 47 48 49 50
000
ASUS41 KCLE 181610
RWRCLE
OHIO REGIONAL WEATHER ROUNDUP
NATIONAL WEATHER SERVICE WILMINGTON, OH
1100 AM EST SUN FEB 18 2018

NOTE: "FAIR" INDICATES FEW OR NO CLOUDS BELOW 12,000 FEET WITH NO
SIGNIFICANT WEATHER AND/OR OBSTRUCTIONS TO VISIBILITY.

OHZ001>008-015>018-024>027-034-035-043-044-181700-
   NORTHWEST OHIO

CITY           SKY/WX    TMP DP  RH WIND       PRES   REMARKS
DEFIANCE       CLOUDY    29  24  82 S9        30.34F WCI  20
FINDLAY        CLOUDY    32  25  75 S8        30.34F WCI  25
TOLEDO EXPRESS PTSUNNY   32  26  78 S8        30.34F WCI  25
TOLEDO EXEC    CLOUDY    32  25  75 SW9       30.36F WCI  24
LIMA           CLOUDY    30  25  81 S8        30.34F WCI  22
$$

OHZ009>014-019>023-028>033-038-089-181700-
   NORTHEAST OHIO

CITY           SKY/WX    TMP DP  RH WIND       PRES   REMARKS
CLE-HOPKINS    CLOUDY    36  27  69 SW8       30.38S
CLE-LAKEFRONT  CLOUDY    36  27  69 W6        30.37R
CUY CO. ARPT   CLOUDY    36  28  75 W10       30.37R
LORAIN-ELYRIA  PTSUNNY   34  23  64 NW9       30.36R WCI  27
ASHTABULA      CLOUDY    33  26  75 NW7       30.37R WCI  27
AKRON-CANTON   PTSUNNY   37  25  61 N5        30.34S
WOOSTER        FAIR      34  25  69 W5        30.36R WCI  30
MANSFIELD      FAIR      35  27  72 SW6       30.33S
YOUNGSTOWN     CLOUDY    36  28  73 W6        30.34R
$$

OHZ042-051>053-060>062-070>072-077>081-181700-
  SOUTHWEST OHIO

CITY           SKY/WX    TMP DP  RH WIND       PRES   REMARKS
CINC-COVINGTON PTSUNNY   38  32  79 SE12      30.37R
CINC-LUNKEN    PTSUNNY   38  30  73 S8        30.41S
HAMILTON       CLOUDY    37  29  72 VRB3      30.39F
DAYTON         CLOUDY    34  29  82 S10       30.36S WCI  26
WRIGHT-PAT AFB CLOUDY    35  27  74 S8        30.37F WCI  28
DAYTON GENERAL CLOUDY    35  28  75 SE8       30.35F WCI  29
WILMINGTON     FAIR      35  28  75 SE9       30.36S WCI  28
$$

OHZ036-037-039>041-045>050-054>059-063>069-073>076-082>088-181700-
  CENTRAL AND SOUTHEAST OHIO

CITY           SKY/WX    TMP DP  RH WIND       PRES   REMARKS
COLUMBUS       PTSUNNY   38  27  64 CALM      30.37S
OSU AIRPORT    FAIR      37  29  72 S8        30.36S
BOLTON FIELD   PTSUNNY   37  27  65 S9        30.38R
RICKENBACK AFB CLOUDY    36  27  72 S7        30.38R
NEWARK         PTSUNNY   38  27  64 S6        30.37R
MARION         CLOUDY    34  26  72 S8        30.36S WCI  27
LANCASTER      CLOUDY    36  27  69 SW7       30.39R
ZANESVILLE     FAIR      38  26  62 VRB3      30.37R
NEW PHILLY     PTSUNNY   36  25  64 N3        30.37R
$$




USA.gov is the U.S. government's official web portal to all federal, state and local government web resources and services.